Regional Weather Roundup
Issued by NWS

Home | Current Version | Previous Version | Graphics & Text | Print | Product List | Glossary On
Versions: 1 2 3 4 5 6 7 8 9 10 11 12 13 14 15 16 17 18 19 20 21 22 23 24 25 26 27 28 29 30 31 32 33 34 35 36 37 38 39 40 41 42 43 44 45 46 47 48 49 50
000
ASUS43 KIND 222059
RWRIN

WEATHER ROUNDUP FOR INDIANA
NATIONAL WEATHER SERVICE INDIANAPOLIS IN
500 PM EDT FRI AUG 22 2014

NOTE: "FAIR" INDICATES FEW OR NO CLOUDS BELOW 12,000 FEET WITH NO
SIGNIFICANT WEATHER AND/OR OBSTRUCTIONS TO VISIBILITY.

* - STATION DOES NOT REPORT WEATHER SUCH AS PRECIPITATION OR FOG.

+ - STATION NOT QUALITY CONTROLLED BY THE NATIONAL WEATHER SERVICE.
    USE DATA WITH CAUTION...ESPECIALLY DEWPOINT AND RELATIVE
    HUMIDITY OBSERVATIONS.

INZ001>003-010>013-019-020-222200-
NORTHWEST INDIANA

CITY           SKY/WX    TMP DP  RH WIND       PRES   REMARKS
GARY /AIRPORT/ PTSUNNY   86  68  54 W6        29.93S
KNOX *+        PTSUNNY   82  72  72 CALM      29.94S
MONTICELLO +   CLOUDY    82  74  77 CALM      29.95F
VALPARAISO     PTSUNNY   84  71  65 W5        29.94F

$$

LMZ046-743>745-222200-
SOUTHERN LAKE MICHIGAN

STATION/POSITION TIME  TEMP WIND        PRES
                       AIR  DIR/SP/G
                 (UTC) (F)  (DEG/KT/KT) (MB)
MICHIGAN CITY    2000   80  250/  2/  2   N/A

$$

INZ004-005-014>016-021>024-222200-
NORTH CENTRAL INDIANA

CITY           SKY/WX    TMP DP  RH WIND       PRES   REMARKS
ELKHART        PTSUNNY   84  72  65 CALM      29.95
GOSHEN         PTSUNNY   86  73  65 W5        29.95S
PERU/GRISSOM   CLOUDY    81  79  94 W7        29.97S
SOUTH BEND     PTSUNNY   83  72  69 W3        29.95F
WARSAW +       CLOUDY    81  72  74 CALM      29.95F

$$

INZ006>009-017-018-025>027-222200-
NORTHEAST INDIANA

CITY           SKY/WX    TMP DP  RH WIND       PRES   REMARKS
ANGOLA *+      MOSUNNY   84  73  70 N5        29.96S
FORT WAYNE     PTSUNNY   82  73  74 NW5       29.97S

$$

INZ028-029-035-036-043>045-051>053-222200-
WEST CENTRAL INDIANA

CITY           SKY/WX    TMP DP  RH WIND       PRES   REMARKS
GREENCASTLE +  PTSUNNY   82  73  74 CALM      29.98F
LAFAYETTE      PTSUNNY   82  73  74 VRB3      29.95F
TERRE HAUTE    CLOUDY    84  74  71 E6        29.97S

$$

INZ030>032-037>040-046>048-054>057-064-065-222200-
CENTRAL INDIANA

CITY           SKY/WX    TMP DP  RH WIND       PRES   REMARKS
FRANKFORT +    PTSUNNY   85  74  69 W6        29.99F
INDIANAPOLIS   PTSUNNY   85  69  58 CALM      29.97F
-EAGLE CREEK   PTSUNNY   84  68  58 W5        29.97F
KOKOMO *+      CLOUDY    81  72  74 W10       29.97R
MT COMFORT *+  MOSUNNY   86  66  51 NW6       29.99S
SHELBYVILLE    PTSUNNY   87  72  60 W7        29.97F

$$

INZ033-034-041-042-049-050-058-059-222200-
EAST CENTRAL INDIANA

CITY           SKY/WX    TMP DP  RH WIND       PRES   REMARKS
MUNCIE         MOSUNNY   83  72  69 W10       29.97F

$$

INZ060-061-067>069-081>083-085>088-222200-
SOUTHWEST INDIANA

CITY           SKY/WX    TMP DP  RH WIND       PRES   REMARKS
EVANSVILLE     PTSUNNY   91  75  59 SW8       29.96F HX 101

$$

INZ062-063-066-070>080-084-089>092-222200-
SOUTH CENTRAL AND SOUTHEAST INDIANA

CITY           SKY/WX    TMP DP  RH WIND       PRES   REMARKS
BLOOMINGTON    PTSUNNY   88  73  61 VRB3      29.98F HX  95

$$



USA.gov is the U.S. government's official web portal to all federal, state and local government web resources and services.